Weather History for Omaha, NE

Change the Weather History Date:

Thursday, October 23, 2014

  Actual Average Record
Temperature  
Mean Temperature 64 °F 50 °F  
Max Temperature 73 °F 62 °F 84 °F (1899)
Min Temperature 54 °F 39 °F 20 °F (1981)
Degree Days  
Heating Degree Days 1 15  
Month to date heating degree days 210 250  
Since 1 July heating degree days 288 353  
Cooling Degree Days 0 0  
Month to date cooling degree days 4 12  
Year to date cooling degree days 1147 1109  
Growing Degree Days 14 (Base 50)    
Moisture  
Dew Point 55 °F    
Average Humidity 64    
Maximum Humidity 93    
Minimum Humidity 35    
Precipitation  
Precipitation 0.00 in 0.06 in 0.84 in (1906)
Month to date precipitation 2.48 1.65  
Year to date precipitation 37.24 27.44  
Snow  
Snow 0.00 in 0.10 in - ()
Month to date snowfall 0.0 0.2  
Since 1 July snowfall 0.0 0.2  
Snow Depth 0.00 in    
Sea Level Pressure  
Sea Level Pressure 30.03 in    
Wind  
Wind Speed 6 mph (South)    
Max Wind Speed 15 mph    
Max Gust Speed 18 mph    
Visibility 8 miles    
Events Fog    
T = Trace of Precipitation, MM = Missing Value Source: NWS Daily Summary

Daily Weather History Graph

Daily Weather History Graph

Search for Another Location

Airport:

Trip Planner

Search our weather history database for the weather conditions in past years. The results will help you decide how hot, cold, wet, or windy it might be!

Date:

Astronomy

Oct. 23, 2014 Rise Set
Actual Time 7:44 AM CDT 6:30 PM CDT
Civil Twilight 7:16 AM CDT 6:58 PM CDT
Nautical Twilight 6:43 AM CDT 7:31 PM CDT
Astronomical Twilight 6:11 AM CDT 8:03 PM CDT
Moon 7:24 AM CDT (10/23) 6:32 PM CDT (10/23)
Length of Visible Light 11h 42m
Length of Day
10h 46m
Waning Crescent, 0% of the Moon is Illuminated
Oct 23
Waning Crescent
Oct 23
New
Oct 30
First Quarter
Nov 6
Full
Nov 14
Last Quarter

Hourly Weather History & Observations

Time (CDT) Temp. Dew Point Humidity Pressure Visibility Wind Dir Wind Speed Gust Speed Precip Events Conditions
12:32 AM 63.0 °F 60.1 °F 90% 30.03 in 8.0 mi SSE 11.5 mph - N/A   Overcast
12:52 AM 63.0 °F 60.1 °F 90% 30.02 in 8.0 mi SSE 11.5 mph - N/A   Overcast
1:52 AM 63.0 °F 60.1 °F 90% 30.01 in 10.0 mi SSE 11.5 mph - N/A   Overcast
2:52 AM 63.0 °F 59.0 °F 87% 30.02 in 10.0 mi South 10.4 mph - N/A   Overcast
3:52 AM 63.0 °F 59.0 °F 87% 30.01 in 10.0 mi SSW 8.1 mph - N/A   Overcast
4:35 AM 62.1 °F 59.0 °F 90% 30.03 in 10.0 mi South 6.9 mph - N/A   Overcast
4:52 AM 62.1 °F 59.0 °F 90% 30.01 in 10.0 mi South 5.8 mph - N/A   Overcast
5:50 AM 62.6 °F 59.0 °F 88% 30.03 in 10.0 mi South 4.6 mph - N/A   Overcast
5:52 AM 62.1 °F 59.0 °F 90% 30.01 in 10.0 mi South 4.6 mph - N/A   Overcast
6:52 AM 62.1 °F 57.9 °F 86% 30.02 in 10.0 mi WSW 4.6 mph - N/A   Overcast
7:15 AM 61.0 °F 57.9 °F 90% 30.04 in 8.0 mi West 4.6 mph - N/A   Overcast
7:52 AM 62.1 °F 57.9 °F 86% 30.03 in 5.0 mi WSW 3.5 mph - N/A   Overcast
8:08 AM 62.1 °F 57.9 °F 86% 30.04 in 4.0 mi Calm Calm - N/A   Overcast
8:22 AM 61.0 °F 57.9 °F 90% 30.04 in 4.0 mi WNW 4.6 mph - N/A   Overcast
8:42 AM 61.0 °F 57.9 °F 90% 30.05 in 4.0 mi NNW 3.5 mph - N/A   Overcast
8:52 AM 61.0 °F 57.9 °F 90% 30.05 in 4.0 mi NNW 4.6 mph - N/A   Overcast
9:09 AM 59.0 °F 55.9 °F 90% 30.06 in 4.0 mi North 8.1 mph - N/A   Overcast
9:52 AM 59.0 °F 55.9 °F 90% 30.07 in 4.0 mi NNE 8.1 mph - N/A   Overcast
10:52 AM 61.0 °F 55.9 °F 83% 30.08 in 6.0 mi West 6.9 mph - N/A   Haze
11:50 AM 62.6 °F 55.4 °F 77% 30.08 in 7.0 mi North 6.9 mph - N/A   Scattered Clouds
11:52 AM 62.1 °F 55.9 °F 80% 30.07 in 7.0 mi NNE 5.8 mph - N/A   Scattered Clouds
12:52 PM 64.0 °F 55.0 °F 73% 30.05 in 7.0 mi SW 4.6 mph - N/A Fog Patches of Fog
1:52 PM 69.1 °F 52.0 °F 54% 30.03 in 10.0 mi NE 3.5 mph - N/A   Clear
2:52 PM 70.0 °F 53.1 °F 55% 30.01 in 10.0 mi ENE 3.5 mph - N/A   Clear
3:52 PM 72.0 °F 46.9 °F 41% 30.00 in 10.0 mi Variable 3.5 mph - N/A   Partly Cloudy
4:52 PM 71.1 °F 43.0 °F 36% 30.00 in 10.0 mi South 3.5 mph - N/A   Clear
5:52 PM 69.1 °F 46.9 °F 45% 29.99 in 10.0 mi South 5.8 mph - N/A   Partly Cloudy
6:52 PM 66.9 °F 48.0 °F 51% 30.00 in 10.0 mi SSW 4.6 mph - N/A   Partly Cloudy
7:52 PM 60.1 °F 50.0 °F 69% 30.01 in 10.0 mi SE 3.5 mph - N/A   Partly Cloudy
8:52 PM 55.9 °F 50.0 °F 80% 30.02 in 10.0 mi SSE 6.9 mph - N/A   Scattered Clouds
9:52 PM 57.0 °F 50.0 °F 77% 30.02 in 10.0 mi Calm Calm - N/A   Mostly Cloudy
10:52 PM 57.0 °F 51.1 °F 81% 30.01 in 10.0 mi South 3.5 mph - N/A   Overcast
11:52 PM 55.9 °F 48.9 °F 77% 30.01 in 10.0 mi SSE 8.1 mph - N/A   Overcast